Hatteras, NC

3:53 PM EDT on May 25, 2017 (GMT -0400)
Mitchell

Weather History for KHSE - November, 2012

Change the Weather History Date:

Thursday, November 22, 2012

  Actual Average Record
Temperature  
Mean Temperature 55 °F 56 °F  
Max Temperature 57 °F 62 °F 78 °F (1985)
Min Temperature 53 °F 50 °F 28 °F (1987)
Degree Days  
Heating Degree Days 10 10  
Month to date heating degree days 235 156  
Since 1 July heating degree days 297 231  
Cooling Degree Days 0 1  
Month to date cooling degree days 0 22  
Year to date cooling degree days 2090 1712  
Growing Degree Days 5 (Base 50)    
Moisture  
Dew Point 50 °F    
Average Humidity 85    
Maximum Humidity 93    
Minimum Humidity 77    
Precipitation  
Precipitation 0.00 in 0.15 in 2.89 in (1924)
Month to date precipitation 1.09 3.76  
Year to date precipitation 51.20 52.58  
Snow  
Snow 0.00 in - - ()
Month to date snowfall 0.0  
Since 1 July snowfall 0.0  
Snow Depth 0.00 in    
Sea Level Pressure  
Sea Level Pressure 30.06 in    
Wind  
Wind Speed 12 mph (NNE)    
Max Wind Speed 20 mph    
Max Gust Speed 33 mph    
Visibility 9 miles    
Events      
T = Trace of Precipitation, MM = Missing Value Source: NWS Daily Summary

Daily Weather History Graph

Daily Weather History Graph

Search for Another Location

Airport or City:

Trip Planner

Search our weather history database for the weather conditions in past years. The results will help you decide how hot, cold, wet, or windy it might be!

Date:

Astronomy

Nov. 22, 2012 Rise Set
Actual Time 6:44 AM EST 4:52 PM EST
Civil Twilight 6:17 AM EST 5:19 PM EST
Nautical Twilight 5:46 AM EST 5:50 PM EST
Astronomical Twilight 5:15 AM EST 6:21 PM EST
Moon 1:27 PM EST (11/22) 1:13 AM EST (11/22)
Length of Visible Light 11h 02m
Length of Day
10h 07m
Waxing Gibbous, 71% of the Moon is Illuminated
Nov 22
Waxing Gibbous
Nov 28
Full
Dec 6
Last Quarter
Dec 13
New
Dec 20
First Quarter

Hourly Weather History & Observations

Time (EST) Temp. Dew Point Humidity Pressure Visibility Wind Dir Wind Speed Gust Speed Precip Events Conditions
12:51 AM 53.1 °F 48.0 °F 83% 30.05 in 10.0 mi NNE 13.8 mph 29.9 mph N/A   Overcast
1:51 AM 53.1 °F 46.9 °F 80% 30.03 in 10.0 mi NNE 17.3 mph 28.8 mph N/A   Overcast
2:51 AM 53.1 °F 48.0 °F 83% 30.02 in 10.0 mi NNE 17.3 mph 33.4 mph N/A   Overcast
3:00 AM 53.6 °F 48.2 °F 82% 30.02 in 10.0 mi NNE 17.3 mph 29.9 mph N/A   Overcast
3:27 AM 53.6 °F 48.2 °F 82% 30.01 in 10.0 mi NNE 16.1 mph 29.9 mph N/A   Overcast
3:51 AM 53.1 °F 48.0 °F 83% 30.01 in 10.0 mi NNE 15.0 mph 29.9 mph N/A   Overcast
4:51 AM 53.1 °F 48.9 °F 86% 30.01 in 10.0 mi North 13.8 mph 26.5 mph N/A   Overcast
5:40 AM 53.6 °F 48.2 °F 82% 30.03 in 10.0 mi NNE 13.8 mph 29.9 mph N/A   Mostly Cloudy
5:51 AM 53.1 °F 48.9 °F 86% 30.03 in 10.0 mi NNE 13.8 mph 31.1 mph N/A   Mostly Cloudy
6:30 AM 53.6 °F 50.0 °F 88% 30.04 in 10.0 mi NNE 13.8 mph 28.8 mph N/A   Overcast
6:51 AM 54.0 °F 50.0 °F 86% 30.04 in 10.0 mi North 11.5 mph 26.5 mph N/A   Overcast
7:51 AM 54.0 °F 50.0 °F 86% 30.06 in 9.0 mi North 12.7 mph 32.2 mph N/A   Overcast
8:05 AM 53.6 °F 50.0 °F 88% 30.06 in 9.0 mi NNE 16.1 mph 33.4 mph N/A   Overcast
8:51 AM 55.0 °F 50.0 °F 83% 30.07 in 9.0 mi NNE 10.4 mph 27.6 mph N/A   Overcast
9:02 AM 55.4 °F 51.8 °F 88% 30.07 in 9.0 mi NNE 11.5 mph 26.5 mph N/A   Overcast
9:51 AM 55.9 °F 51.1 °F 84% 30.09 in 8.0 mi North 12.7 mph 27.6 mph N/A   Overcast
10:51 AM 55.9 °F 51.1 °F 84% 30.09 in 8.0 mi NNE 15.0 mph 25.3 mph N/A   Overcast
11:51 AM 57.0 °F 51.1 °F 81% 30.06 in 9.0 mi North 13.8 mph 27.6 mph N/A   Overcast
12:51 PM 55.9 °F 51.1 °F 84% 30.06 in 8.0 mi NNE 11.5 mph 25.3 mph N/A   Overcast
1:44 PM 55.4 °F 51.8 °F 88% 30.04 in 8.0 mi North 13.8 mph 27.6 mph N/A   Overcast
1:51 PM 55.9 °F 51.1 °F 84% 30.05 in 7.0 mi NNE 12.7 mph 24.2 mph N/A   Overcast
2:51 PM 55.9 °F 52.0 °F 87% 30.04 in 8.0 mi North 11.5 mph 27.6 mph N/A   Overcast
3:24 PM 55.4 °F 51.8 °F 88% 30.05 in 7.0 mi North 10.4 mph 28.8 mph N/A   Overcast
3:51 PM 55.0 °F 52.0 °F 89% 30.06 in 7.0 mi North 12.7 mph 25.3 mph N/A   Overcast
4:51 PM 55.0 °F 52.0 °F 89% 30.07 in 7.0 mi North 11.5 mph 25.3 mph N/A   Overcast
5:51 PM 55.0 °F 52.0 °F 89% 30.08 in 8.0 mi NNE 11.5 mph 21.9 mph N/A   Overcast
6:51 PM 55.0 °F 52.0 °F 89% 30.09 in 8.0 mi North 8.1 mph 24.2 mph N/A   Overcast
7:51 PM 54.0 °F 51.1 °F 90% 30.10 in 8.0 mi North 8.1 mph - N/A   Overcast
8:51 PM 54.0 °F 51.1 °F 90% 30.10 in 8.0 mi North 8.1 mph 20.7 mph N/A   Overcast
9:51 PM 54.0 °F 52.0 °F 93% 30.10 in 8.0 mi NNE 8.1 mph 20.7 mph N/A   Overcast
10:51 PM 54.0 °F 52.0 °F 93% 30.10 in 9.0 mi North 9.2 mph 18.4 mph N/A   Overcast
11:51 PM 54.0 °F 51.1 °F 90% 30.09 in 9.0 mi Variable 6.9 mph - N/A   Overcast